Regional Weather Roundup
Issued by NWS

Home | Current Version | Previous Version | Graphics & Text | Print | Product List | Glossary On
Versions: 1 2 3 4 5 6 7 8 9 10 11 12 13 14 15 16 17 18 19 20 21 22 23 24 25 26 27 28 29 30 31 32 33 34 35 36 37 38 39 40 41 42 43 44 45 46 47 48 49 50
000
ASUS43 KMPX 011510
RWRMN
WEATHER ROUNDUP FOR MINNESOTA
NATIONAL WEATHER SERVICE TWIN CITIES/CHANHASSEN MN
1000 AM CDT SAT AUG 01 2015


NOTE: "FAIR" INDICATES FEW OR NO CLOUDS BELOW 12,000 FEET WITH NO
SIGNIFICANT WEATHER AND/OR OBSTRUCTIONS TO VISIBILITY. N/A MEANS
CURRENT SKY AND/OR WEATHER CONDITIONS ARE NOT AVAILABLE.

MNZ060>063-068>070-011600-
   Twin Cities Metro

CITY           SKY/WX    TMP DP  RH WIND       PRES   REMARKS
TWIN CITIES    MOSUNNY   76  61  59 S3        29.97S
ST PAUL        SUNNY     76  62  62 SE3       29.97S
CRYSTAL        SUNNY     77  58  51 CALM      29.95F
BLAINE         SUNNY     75  61  60 CALM      29.96F
LAKEVILLE      SUNNY     73  63  68 CALM      29.98S
EDEN PRAIRIE   SUNNY     75  63  66 S5        29.97S
SOUTH ST PAUL  SUNNY     76  59  55 SW3       29.96F
LAKE ELMO      FAIR      73  63  68 S3        29.98S
$$
MNZ001>005-007-008-013>017-022>024-027-028-011600-
   Northwest Minnesota

CITY           SKY/WX    TMP DP  RH WIND       PRES   REMARKS
BEMIDJI        SUNNY     71  54  56 W6        29.95S
HALLOCK        SUNNY     70  57  64 S3        29.89F
ROSEAU         SUNNY     72  61  68 SW5       29.89F
WARROAD        SUNNY     70  61  73 W6        29.89F
THIEF RVR FALL SUNNY     70  55  60 SW8       29.93F
CROOKSTON      SUNNY     70  55  60 CALM      29.93F
FOSSTON        MOSUNNY   68  55  64 SW3       29.95F
DETROIT LAKES  SUNNY     72  54  53 W5        29.98S
MOORHEAD       SUNNY     72  59  64 CALM      29.95S
PARK RAPIDS    SUNNY     73  54  51 W7        29.96F
MAHNOMEN       FAIR      69  58  69 CALM      29.95F
$$
MNZ006-009>011-018-025>026-011600-
   North Central Minnesota

CITY           SKY/WX    TMP DP  RH WIND       PRES   REMARKS
BAUDETTE       SUNNY     72  55  55 W9        29.89F
FLAG ISLAND    SUNNY     72  52  49 W9        29.85F
INTL FALLS     SUNNY     71  54  54 W12       29.88F
WASKISH        SUNNY     70  61  73 SW8       29.91F
BIG FORK       SUNNY     73  54  49 NW5       29.92F
LONGVILLE      SUNNY     72  55  56 W6        29.95F
GRAND RAPIDS   SUNNY     70  54  56 W8        29.95S
CRANE LAKE     SUNNY     66  54  63 NW7       29.91S
ORR            SUNNY     70  52  52 NW8       29.89F
COOK           SUNNY     70  54  56 W8        29.92F
WALKER         FAIR      70  55  59 W5        29.95F
$$
MNZ012-019>021-037-011600-
   Northeast Minnesota

CITY           SKY/WX    TMP DP  RH WIND       PRES   REMARKS
DULUTH         SUNNY     74  54  49 W10       29.92F
ELY            SUNNY     70  54  56 W7        29.90F
HIBBING        SUNNY     73  52  47 NW14      29.93F
EVELETH        SUNNY     72  54  53 NW10G16   29.93S
DULUTH HARBOR  SUNNY     75  55  50 W9        29.91F
TWO HARBORS    SUNNY     75  59  57 W7        29.89F
SILVER BAY     SUNNY     73  54  49 W7        29.89S
GRAND MARAIS     N/A     75  53  46 VRB7      29.84S
G MARAIS ARPRT SUNNY     66  50  55 W10G23    29.89S
$$
MNZ029>031-032-039>041-046>048-054>057-064-011600-
   West Central Minnesota

CITY           SKY/WX    TMP DP  RH WIND       PRES   REMARKS
FERGUS FALLS   SUNNY     73  57  56 SW3       29.96S
WHEATON        SUNNY     73  61  64 SE6       29.98S
MORRIS         SUNNY     75  63  64 S3        29.97S
ALEXANDRIA     SUNNY     76  52  43 SW3       30.00S
ELBOW LAKE     FAIR      73  59  61 S3        29.97F
WADENA         SUNNY     73  55  53 W5        29.96F
GLENWOOD       SUNNY     75  55  50 CALM      29.99S
APPLETON       SUNNY     75  63  64 S5        29.97F
BENSON         SUNNY     75  59  57 CALM      29.98S
ORTONVILLE     SUNNY     73  63  68 S5        29.97S
MADISON        SUNNY     73  63  68 CALM      29.98F
WILLMAR        FAIR      75  64  69 CALM      30.00S
$$
MNZ033>034-036-042>043-049>051-058-059-011600-
   Central Minnesota

CITY           SKY/WX    TMP DP  RH WIND       PRES   REMARKS
ST CLOUD       SUNNY     76  55  48 W5        29.97S
SAUK CENTRE    FAIR      74  59  58 CALM      29.99S
PAYNESVILLE    SUNNY     73  54  50 CALM      29.99S
AITKIN         SUNNY     73  57  56 NW3       29.94F
PINE RIVER     SUNNY     72  54  53 W8        29.99F
BRAINERD       SUNNY     74  52  46 W6        29.97S
STAPLES        SUNNY     73  54  49 W5        29.97S
LONG PRAIRIE   FAIR      73  54  49 S5        29.98F
LITTLE FALLS   SUNNY     73  54  49 W5        29.97S
LITCHFIELD     SUNNY     77  52  41 CALM      29.99S
BUFFALO        SUNNY     74  60  59 CALM      29.99S
MAPLE LAKE     SUNNY     75  61  60 CALM      29.99S
$$
MNZ037-044-045-052-053-011600-
   East Central Minnesota

CITY           SKY/WX    TMP DP  RH WIND       PRES   REMARKS
PRINCETON      SUNNY     77  57  50 W6        29.97S
MORA           SUNNY     73  54  49 NW7       29.98R
CAMBRIDGE      SUNNY     79  59  50 SW5       29.95S
RUSH CITY      MOSUNNY   74  57  55 W5        29.96S
MOOSE LAKE     SUNNY     72  54  53 NW6       29.93S
HINCKLEY       FAIR      73  57  56 W5        29.95S
CLOQUET        SUNNY     72  52  49 W8        29.94S
MCGREGOR       SUNNY     72  52  49 W7        29.95F
$$
MNZ071>073-080-081-089-090-097-098-011600-
   Southwest Minnesota

CITY           SKY/WX    TMP DP  RH WIND       PRES   REMARKS
MONTEVIDEO     SUNNY     79  64  61 S3        30.01R
GRANITE FALLS  SUNNY     71  64  77 CALM      30.01S
CANBY          MOSUNNY   73  65  76 NE5       30.00S
MARSHALL       SUNNY     77  66  69 NW5       30.01S
REDWOOD FALLS  SUNNY     74  63  68 CALM      29.99S
OLIVIA         SUNNY     72  63  73 CALM      29.99S
PIPESTONE      MOSUNNY   75  70  83 SW7       30.03S
WINDOM         SUNNY     77  68  73 SW8       30.02S
WORTHINGTON    MOSUNNY   75  66  73 SW12      30.03S
JACKSON        SUNNY     77  68  73 W9        30.03S
TRACY          SUNNY     79  70  73 W3        30.01S
SLAYTON        MOSUNNY   78  69  75 SW9       30.04R
$$
MNZ065>067-074>077-082>085-091>093-011600-
   South Central Minnesota

CITY           SKY/WX    TMP DP  RH WIND       PRES   REMARKS
MANKATO        SUNNY     70  63  78 CALM      30.00S
NEW ULM        SUNNY     72  64  78 W3        30.00R
ST JAMES       SUNNY     77  70  78 W5        30.02R
FAIRMONT       SUNNY     75  64  69 W9        30.01S
GLENCOE        SUNNY     75  64  68 CALM      29.98S
FARIBAULT      SUNNY     73  64  73 CALM      29.99F
OWATONNA       SUNNY     72  63  73 NW3       30.00S
WASECA         SUNNY     72  64  78 W3        30.01S
ALBERT LEA     SUNNY     73  64  73 W6        30.01S
$$
MNZ078>079-086>088-094>096-011600-
   Southeast Minnesota

CITY           SKY/WX    TMP DP  RH WIND       PRES   REMARKS
ROCHESTER      SUNNY     72  64  76 NW9       30.00F
RED WING       SUNNY     75  61  60 CALM      29.96S
STANTON        SUNNY     73  61  66 CALM      29.97F
DODGE CENTER   SUNNY     72  63  73 NW3       30.00S
WINONA         SUNNY     73  61  64 CALM      29.97S
AUSTIN         SUNNY     73  64  73 W8        30.00S
PRESTON        SUNNY     72  62  71 W9        30.00F
$$
ABBREVIATIONS USED IN REMARKS
   TC - TEMPERATURES IN CELSIUS
  WCI - WIND CHILL INDEX
   HX - HEAT INDEX
  VSB - VISIBILITY
$$



USA.gov is the U.S. government's official web portal to all federal, state and local government web resources and services.